[[{"header":{"parameterUnit":"m.s-1","parameterCategory":1,"la1":30.2991,"la2":30.254,"lo1":-89.0895,"lo2":-89.0444,"dy":0.0017,"dx":0.0017,"nx":28,"ny":28,"refTime":"2026-03-05T09:00:00:Z","depth":0,"parameterNumber":2,"parameterNumberName":"U-component_of_WINDS"},"data":[0,0,0,0,0,0,0,0,0,0,0,0,0,0,0,0,0,0,0,0,0,0,0,0,0,0,0,0,0,0,0,0,0,0,0,0,0,0,0,0,0,0,0,0,0,0,0,0,0,0,0,0,0,0,0,0,0,0,-4.3343,-4.3344,0,-4.3384,-4.3385,-4.3385,-4.3366,-4.3365,-4.3364,-4.3363,-4.3402,-4.3404,-4.3406,0,0,0,0,0,0,0,0,0,0,0,0,0,-4.3246,-4.3248,-4.3343,-4.3344,-4.3344,-4.3384,-4.3385,-4.3385,-4.3366,-4.3365,-4.3364,-4.3363,-4.3401,-4.3404,-4.3406,0,0,0,0,0,0,0,0,0,0,0,0,0,-4.3288,-4.3248,-4.3343,-4.334,-4.334,-4.3384,-4.3385,-4.3385,-4.3367,-4.3365,-4.3363,-4.3362,-4.3401,-4.3404,-4.3407,-4.3456,0,0,-4.3416,-4.3417,0,0,0,0,0,0,0,0,-4.3285,-4.3291,-4.3339,-4.334,-4.334,-4.3369,-4.3365,-4.3409,-4.3367,-4.3356,-4.3363,-4.3361,-4.3392,-4.3396,-4.3407,-4.3458,-4.3459,-4.3416,-4.3418,-4.3419,-4.342,0,0,0,0,0,0,0,-4.3282,-4.3289,-4.3359,-4.334,-4.3341,-4.3335,-4.334,-4.3373,-4.3382,-4.3357,-4.3356,-4.3361,-4.3392,-4.3404,-4.3407,-4.346,-4.3416,-4.3419,-4.342,-4.3422,-4.3554,-4.3556,0,0,0,0,0,0,-4.328,-4.3287,-4.3358,-4.336,-4.3308,-4.3338,-4.3343,-4.3361,-4.3382,-4.3383,-4.3362,-4.336,-4.3399,-4.3404,-4.3409,-4.3467,-4.3419,-4.3422,-4.3424,-4.3552,-4.3554,-4.3556,0,0,0,0,0,0,-4.3278,-4.3287,-4.3356,-4.3324,-4.3332,-4.3342,-4.3362,-4.3363,-4.3374,-4.3386,-4.3387,-4.3373,-4.3398,-4.3404,-4.3445,-4.3468,-4.3423,-4.3426,-4.355,-4.3553,-4.3555,-4.3585,0,0,0,0,0,0,-4.3275,-4.3286,-4.3305,-4.3324,-4.3334,-4.3392,-4.3363,-4.3364,-4.338,-4.3377,-4.3396,-4.3398,-4.3398,-4.344,-4.3448,-4.3472,-4.3428,-4.3548,-4.3552,-4.3555,-4.3582,-4.3588,-4.3594,0,0,0,0,0,-4.3272,-4.3311,-4.3306,-4.3315,-4.3358,-4.3393,-4.3399,-4.3399,-4.3382,-4.3401,-4.3409,-4.3397,-4.3465,-4.3445,-4.3453,-4.3478,-4.3547,-4.3551,-4.3554,-4.3579,-4.3587,-4.3594,0,0,0,0,0,0,-4.3292,-4.3313,-4.3308,-4.3355,-4.3373,-4.339,-4.3414,-4.3407,-4.3429,-4.3426,-4.3424,-4.3429,-4.347,-4.3478,-4.3455,-4.3527,-4.3503,-4.3509,-4.3519,-4.3527,-4.3533,-4.3529,-4.3431,0,0,0,0,0,-4.3303,-4.3331,-4.3347,-4.3387,-4.3396,-4.3404,-4.3419,-4.3418,-4.3436,-4.3443,-4.3453,-4.3471,-4.3496,-4.3512,-4.3536,-4.3584,-4.3588,-4.3606,-4.3612,-4.3617,-4.3621,-4.3646,-4.3654,-4.3569,-4.3569,-4.3569,0,0,-4.3323,-4.3338,-4.3356,-4.3391,-4.3405,-4.3433,-4.341,-4.344,-4.3461,-4.3447,-4.3485,-4.3494,-4.3514,-4.3558,-4.3578,-4.3566,-4.3646,-4.3622,-4.3625,-4.3627,-4.3651,-4.3659,-4.3666,-4.3572,-4.3571,-4.3571,0,0,-4.3375,-4.339,-4.3424,-4.3439,-4.3461,-4.3466,-4.3475,-4.3494,-4.35,-4.3539,-4.3529,-4.3554,-4.3598,-4.3612,-4.3624,-4.3685,-4.3675,-4.3693,-4.3722,-4.3748,-4.3754,-4.376,-4.378,-4.3788,-4.3697,-4.3697,-4.3698,0,-4.3397,-4.344,-4.3442,-4.3474,-4.349,-4.3481,-4.3515,-4.353,-4.3558,-4.3568,-4.3556,-4.3611,-4.3624,-4.3671,-4.3686,-4.3697,-4.3706,-4.3689,-4.3753,-4.3759,-4.3765,-4.3784,-4.3792,-4.3699,-4.3699,-4.3699,-4.3699,0,-4.3466,-4.3496,-4.3521,-4.355,-4.3569,-4.3602,-4.3609,-4.3627,-4.3626,-4.3632,-4.3672,-4.3688,-4.3714,-4.3726,-4.3724,-4.3774,-4.3766,-4.3754,-4.3729,-4.3775,-4.3793,-4.38,-4.3702,-4.3701,-4.3701,-4.37,0,0,-4.3528,-4.356,-4.3569,-4.3582,-4.3607,-4.363,-4.3663,-4.3691,-4.3706,-4.3727,-4.3754,-4.3793,-4.3782,-4.3797,-4.3797,-4.3819,-4.3864,-4.3804,-4.3804,-4.3813,-4.3919,-4.3926,-4.3934,-4.386,-4.3861,-4.3862,-4.3916,0,-4.358,-4.3638,-4.3642,-4.3695,-4.3722,-4.3716,-4.3744,-4.3763,-4.377,-4.3794,-4.3803,-4.383,-4.3814,-4.3823,-4.3845,-4.3854,-4.3885,-4.3851,-4.3883,-4.3884,-4.3875,-4.3944,-4.3951,-4.4002,-4.3924,-4.3925,-4.3926,0,-4.3647,-4.3672,-4.3727,-4.3749,-4.3761,-4.3786,-4.3812,-4.3836,-4.3857,-4.3861,-4.3879,-4.3876,-4.391,-4.3887,-4.3932,-4.3909,-4.3923,-4.393,-4.3932,-4.3932,-4.3905,-4.3944,-4.4018,-4.4024,-4.3937,-4.3936,-4.3935,0,-4.3685,-4.3732,-4.3771,-4.3783,-4.381,-4.3828,-4.384,-4.3859,-4.3876,-4.3899,-4.391,-4.3937,-4.3951,-4.3971,-4.3976,-4.3959,-4.4021,-4.3999,-4.4024,-4.4024,-4.4035,-4.4033,-4.4109,-4.4048,-4.4048,-4.4048,-4.4048,0,-4.3741,-4.3774,-4.3788,-4.3812,-4.3849,-4.3855,-4.3892,-4.3902,-4.392,-4.3946,-4.3943,-4.3966,-4.3972,-4.3997,-4.4001,-4.4038,-4.4045,-4.4048,-4.4048,-4.4047,-4.4046,-4.4053,-4.4049,-4.405,-4.4049,-4.4049,-4.4049,0,-4.3788,-4.3798,-4.384,-4.3864,-4.387,-4.3897,-4.3916,-4.3939,-4.3948,-4.398,-4.3988,-4.4001,-4.403,-4.4038,-4.4073,-4.4076,-4.4118,-4.4116,-4.4111,-4.411,-4.4135,-4.4131,-4.4216,-4.4227,-4.4161,-4.4161,-4.4162,0,-4.3821,-4.3847,-4.3874,-4.3891,-4.3905,-4.3933,-4.395,-4.3957,-4.3976,-4.4003,-4.4022,-4.4051,-4.4075,-4.4122,-4.4134,-4.4161,-4.4158,-4.4186,-4.4162,-4.416,-4.4156,-4.4153,-4.4155,-4.4189,-4.419,-4.4191,-4.4191,0,-4.3879,-4.3884,-4.391,-4.3939,-4.396,-4.3983,-4.4004,-4.4018,-4.4029,-4.405,-4.408,-4.4099,-4.4135,-4.4164,-4.4191,-4.4203,-4.4198,-4.4199,-4.4206,-4.4203,-4.4199,-4.42,-4.4121,-4.4196,-4.4196,-4.4195,-4.4195,-4.4195,-4.3919,-4.3942,-4.3964,-4.3994,-4.4012,-4.4032,-4.4055,-4.4067,-4.4093,-4.4124,-4.4127,-4.416,-4.4181,-4.4218,-4.4232,-4.4257,-4.4249,-4.4259,-4.4261,-4.4263,-4.4264,-4.4197,-4.4263,-4.4263,-4.4262,-4.4262,-4.4262,0,-4.3975,-4.399,-4.4017,-4.4048,-4.4072,-4.4068,-4.4092,-4.4112,-4.4141,-4.4162,-4.4186,-4.4221,-4.425,-4.4266,-4.4294,-4.4311,-4.431,-4.4318,-4.4316,-4.4318,-4.4271,-4.4262,-4.4319,-4.4319,-4.4319,-4.4319,-4.4319,-4.4319,-4.4007,-4.4045,-4.4053,-4.41,-4.4114,-4.4147,-4.4162,-4.4181,-4.4197,-4.4237,-4.4262,-4.4273,-4.4291,-4.4322,-4.4347,-4.4351,-4.4361,-4.437,-4.4373,-4.4328,-4.4322,-4.4316,-4.4307,-4.4373,-4.4373,-4.4417,-4.4418,-4.4418]},{"header":{"parameterUnit":"m.s-1","parameterCategory":1,"la1":30.2991,"la2":30.254,"lo1":-89.0895,"lo2":-89.0444,"dy":0.0017,"dx":0.0017,"nx":28,"ny":28,"refTime":"2026-03-05T09:00:00:Z","depth":0,"parameterNumber":3,"parameterNumberName":"V-component_of_WINDS"},"data":[0,0,0,0,0,0,0,0,0,0,0,0,0,0,0,0,0,0,0,0,0,0,0,0,0,0,0,0,0,0,0,0,0,0,0,0,0,0,0,0,0,0,0,0,0,0,0,0,0,0,0,0,0,0,0,0,0,0,2.6237,2.6238,0,2.6315,2.6316,2.6317,2.6357,2.6357,2.6357,2.6357,2.6432,2.6433,2.6435,0,0,0,0,0,0,0,0,0,0,0,0,0,2.6122,2.6124,2.6237,2.6238,2.6239,2.6315,2.6316,2.6317,2.6357,2.6357,2.6357,2.6357,2.6431,2.6433,2.6436,0,0,0,0,0,0,0,0,0,0,0,0,0,2.6183,2.6124,2.6237,2.6268,2.6272,2.6314,2.6316,2.6317,2.6357,2.6357,2.6357,2.6357,2.643,2.6433,2.6436,2.6452,0,0,2.6445,2.6446,0,0,0,0,0,0,0,0,2.6179,2.6187,2.6263,2.6266,2.627,2.6326,2.6302,2.6362,2.6357,2.6324,2.6357,2.6357,2.6396,2.6402,2.6416,2.6455,2.6459,2.6445,2.6447,2.6448,2.6449,0,0,0,0,0,0,0,2.6175,2.6184,2.6268,2.6264,2.6268,2.6278,2.6287,2.6314,2.6359,2.6327,2.633,2.6339,2.6398,2.6413,2.6418,2.646,2.6445,2.6448,2.6449,2.645,2.652,2.652,0,0,0,0,0,0,2.6166,2.618,2.6265,2.627,2.6224,2.628,2.629,2.6308,2.6358,2.6366,2.6339,2.6341,2.6408,2.6415,2.6421,2.6445,2.6448,2.6451,2.6452,2.6519,2.652,2.652,0,0,0,0,0,0,2.6163,2.6173,2.6262,2.6226,2.6238,2.6282,2.6302,2.631,2.6325,2.6368,2.6375,2.6346,2.6409,2.6417,2.6445,2.6448,2.6452,2.6455,2.6519,2.6519,2.652,2.6493,0,0,0,0,0,0,2.616,2.6172,2.6179,2.6226,2.624,2.6285,2.6302,2.6311,2.633,2.6333,2.6376,2.6384,2.6409,2.6441,2.6448,2.6453,2.6457,2.6519,2.6519,2.652,2.6494,2.6492,2.6491,0,0,0,0,0,2.6156,2.6166,2.6179,2.6189,2.6249,2.6286,2.6293,2.6324,2.633,2.6337,2.6366,2.6382,2.6447,2.6443,2.6452,2.6457,2.6519,2.6519,2.652,2.6494,2.6492,2.6491,0,0,0,0,0,0,2.6116,2.6173,2.6187,2.6214,2.6245,2.6292,2.6302,2.6321,2.6349,2.6351,2.6386,2.6396,2.6421,2.6442,2.6436,2.6477,2.6485,2.6487,2.6463,2.6461,2.646,2.6454,2.6459,0,0,0,0,0,2.6111,2.6137,2.6184,2.6203,2.6218,2.6258,2.6274,2.6296,2.6329,2.6341,2.6371,2.6401,2.6429,2.6446,2.6473,2.6497,2.6508,2.6505,2.6504,2.6502,2.6504,2.652,2.652,2.652,2.652,2.652,0,0,2.6099,2.6134,2.6147,2.6196,2.6223,2.6249,2.6268,2.6293,2.6313,2.6345,2.6374,2.6397,2.6433,2.646,2.6473,2.6478,2.6506,2.6503,2.6501,2.6503,2.6521,2.652,2.652,2.652,2.652,2.652,0,0,2.6092,2.612,2.6141,2.6168,2.6209,2.6236,2.624,2.6286,2.6303,2.6334,2.6359,2.6382,2.6428,2.6454,2.6473,2.6479,2.6497,2.6487,2.648,2.6495,2.6495,2.6496,2.65,2.6501,2.6488,2.6488,2.6488,0,2.6072,2.6113,2.6148,2.6174,2.6195,2.6228,2.6249,2.6273,2.632,2.6334,2.6339,2.64,2.6426,2.6461,2.6463,2.6476,2.6484,2.6482,2.6493,2.6493,2.6494,2.6498,2.65,2.6487,2.6487,2.6487,2.6487,0,2.6088,2.6116,2.6128,2.6176,2.6198,2.6221,2.6259,2.6278,2.6298,2.6324,2.6356,2.6389,2.6426,2.6435,2.6453,2.6473,2.6476,2.6486,2.6495,2.6492,2.6497,2.6499,2.6485,2.6486,2.6486,2.6486,0,0,2.6056,2.6126,2.613,2.6153,2.6202,2.6224,2.6249,2.6287,2.6304,2.6335,2.6358,2.6398,2.6409,2.6431,2.6453,2.6466,2.6472,2.6476,2.6477,2.6476,2.6498,2.6491,2.6492,2.6484,2.6484,2.6485,2.6496,0,2.6058,2.6106,2.614,2.6175,2.6202,2.6235,2.6257,2.629,2.6315,2.6342,2.6369,2.6398,2.641,2.6424,2.6439,2.6468,2.6477,2.6468,2.6505,2.6506,2.6497,2.6494,2.6486,2.6495,2.6498,2.6498,2.6498,0,2.6065,2.6099,2.6138,2.6187,2.62,2.6219,2.6258,2.6283,2.6321,2.6339,2.6365,2.6389,2.6417,2.6423,2.6463,2.6456,2.6473,2.649,2.6491,2.6497,2.6503,2.6501,2.6498,2.65,2.6501,2.6501,2.6501,0,2.604,2.6095,2.6127,2.6146,2.6203,2.6217,2.6241,2.628,2.6301,2.6335,2.635,2.6385,2.6404,2.6431,2.6464,2.6465,2.6501,2.6509,2.6517,2.6516,2.6523,2.6523,2.6525,2.6532,2.6532,2.6532,2.6532,0,2.6038,2.6061,2.6117,2.6136,2.6164,2.6202,2.6227,2.6254,2.6289,2.6314,2.6343,2.6366,2.6407,2.6435,2.646,2.6491,2.6499,2.6514,2.6521,2.6513,2.6511,2.6525,2.6525,2.6533,2.6533,2.6533,2.6533,0,2.6015,2.6054,2.609,2.6144,2.6158,2.6175,2.6221,2.6241,2.6269,2.6301,2.631,2.6354,2.6389,2.6424,2.647,2.6487,2.6517,2.6526,2.6505,2.6509,2.6516,2.6515,2.6528,2.6532,2.6535,2.6535,2.6535,0,2.6012,2.6031,2.6087,2.6108,2.6132,2.6164,2.6187,2.6226,2.6249,2.6296,2.631,2.6348,2.638,2.6434,2.6469,2.6505,2.6515,2.6517,2.652,2.6512,2.6517,2.6516,2.6519,2.6516,2.6516,2.6515,2.6515,0,2.6003,2.6022,2.6055,2.6096,2.6124,2.6157,2.6192,2.6206,2.6252,2.6276,2.6314,2.6339,2.6388,2.6425,2.6466,2.649,2.6511,2.6514,2.6518,2.651,2.6498,2.6507,2.6503,2.6514,2.6514,2.6514,2.6514,2.6514,2.5991,2.601,2.6054,2.6091,2.6122,2.6155,2.6177,2.621,2.6242,2.6287,2.6308,2.6346,2.6385,2.6443,2.6467,2.6497,2.6503,2.6508,2.6509,2.651,2.651,2.6493,2.6504,2.6504,2.6505,2.6505,2.6505,0,2.5985,2.6016,2.6049,2.6099,2.6128,2.6147,2.6187,2.621,2.6244,2.6281,2.6313,2.6357,2.6394,2.6434,2.6473,2.6489,2.65,2.6498,2.6498,2.6504,2.6501,2.6495,2.649,2.649,2.649,2.649,2.649,2.649,2.5985,2.602,2.6045,2.6097,2.6127,2.6166,2.6188,2.6218,2.6248,2.6297,2.6329,2.6355,2.6394,2.6437,2.6472,2.6482,2.6496,2.6492,2.6506,2.6502,2.6504,2.6505,2.6499,2.6494,2.6494,2.6506,2.6506,2.6506]}]]